Location: Narvik
(68.4360°N, 17.4370°E)
Time: 21:29:14
(UTC+02:00)

POLYITAN 1 - Visible Passes

Search period start: 17 September 2019 00:00
Search period end: 27 September 2019 00:00
Orbit: 591 x 613 km, 97.9° (Epoch: 16 September)

Date Brightness Start Highest point End Pass type
(mag) Time Alt. Az. Time Alt. Az. Time Alt. Az.
17 Sep ? 00:02:48 10° NE 00:05:16 15° E 00:06:41 13° ESE visible
17 Sep ? 01:37:55 10° NNE 01:42:01 49° ESE 01:43:28 34° SSE visible
17 Sep ? 03:13:48 10° NNE 03:17:52 50° NW 03:20:15 23° WSW visible
17 Sep ? 04:49:45 10° NNE 04:52:59 22° NNW 04:56:13 10° W visible
18 Sep ? 00:14:18 10° NE 00:17:08 17° E 00:18:24 15° ESE visible
18 Sep ? 01:49:36 10° NNE 01:53:46 57° ESE 01:55:11 37° SSE visible
18 Sep ? 03:25:31 10° NNE 03:29:32 44° NW 03:31:58 21° WSW visible
18 Sep ? 05:01:28 10° NNE 05:04:34 20° NNW 05:07:40 10° WNW visible
19 Sep ? 00:25:51 10° NE 00:28:59 20° E 00:30:08 18° ESE visible
19 Sep ? 02:01:19 10° NNE 02:05:31 67° ESE 02:06:54 40° S visible
19 Sep ? 03:37:15 10° NNE 03:41:10 39° NW 03:43:41 19° WSW visible
19 Sep ? 05:13:10 10° NNE 05:16:08 19° NNW 05:19:06 10° WNW visible
20 Sep ? 00:37:27 10° NE 00:40:50 23° E 00:41:51 21° ESE visible
20 Sep ? 02:13:01 10° NNE 02:17:14 78° ESE 02:18:38 41° S visible
20 Sep ? 03:48:58 10° NNE 03:52:48 35° NW 03:55:25 18° WSW visible
21 Sep ? 00:49:05 10° NNE 00:52:39 26° E 00:53:34 24° ESE visible
21 Sep ? 02:24:43 10° NNE 02:28:57 90° ENE 02:30:21 42° SSW visible
21 Sep ? 04:00:41 10° NNE 04:04:25 32° NW 04:07:08 16° W visible
22 Sep ? 01:00:43 10° NNE 01:04:27 30° E 01:05:18 28° ESE visible
22 Sep ? 02:36:26 10° NNE 02:40:39 79° WNW 02:42:05 41° SW visible
22 Sep ? 04:12:25 10° NNE 04:16:02 29° NW 04:18:51 14° W visible
22 Sep ? 23:38:09 10° ENE 23:39:15 11° ENE 23:40:14 10° E visible
23 Sep ? 01:12:22 10° NNE 01:16:16 35° E 01:17:01 32° ESE visible
23 Sep ? 02:48:09 10° NNE 02:52:20 69° WNW 02:53:48 39° SW visible
23 Sep ? 04:24:07 10° NNE 04:27:38 26° NW 04:30:35 13° W visible
23 Sep ? 23:49:16 10° NE 23:51:09 13° ENE 23:51:57 12° E visible
24 Sep ? 01:24:02 10° NNE 01:28:02 41° E 01:28:44 38° SE visible
24 Sep ? 02:59:52 10° NNE 03:04:01 60° WNW 03:05:31 36° WSW visible
24 Sep ? 04:35:51 10° NNE 04:39:14 24° NW 04:42:18 12° W visible
25 Sep ? 00:00:38 10° NE 00:03:02 15° E 00:03:41 14° E visible
25 Sep ? 01:35:43 10° NNE 01:39:48 47° ESE 01:40:27 43° SE visible
25 Sep ? 03:11:35 10° NNE 03:15:41 52° NW 03:17:14 33° WSW visible
25 Sep ? 04:47:33 10° NNE 04:50:49 22° NNW 04:54:01 10° W visible
26 Sep ? 00:12:08 10° NE 00:14:54 17° E 00:15:24 17° E visible
26 Sep ? 01:47:24 10° NNE 01:51:33 56° ESE 01:52:10 50° SE visible
26 Sep ? 03:23:18 10° NNE 03:27:20 46° NW 03:28:58 30° WSW visible
26 Sep ? 04:59:16 10° NNE 05:02:23 21° NNW 05:05:31 10° W visible
